Home   Weather   Maple Ridge   Past weeks

Flag for Canada Past Weather in Maple Ridge, British Columbia, Canada — Yesterday and Last 2 Weeks

Now
74 °F

Mild.


Feels Like: 77 °F
Forecast: 57 / 75 °F
Wind: 5 mph from Southwest

Location: P. Meadows Coastal Station

Current Time: Jul 23, 2017 at 1:59:40 pm

Latest Report: Jul 23, 2017 at 1:00 pm


Visibility: N/A

Pressure: 30.06 "Hg

Humidity: 53%

Dew Point: 56 °F

Location of Maple RidgeLocation

Past Weather in Maple Ridge — Graph

°F

Maple Ridge Temperature Yesterday

Maximum temperature yesterday: 68 °F (at 4:00 pm)
Minimum temperature yesterday: 58 °F (at 9:00 am)
Average temperature yesterday: 63 °F

High & Low Weather Summary for the Past Weeks

 TemperatureHumidityPressure
High82 °F (Jul 18, 4:00 pm)99% (Jul 22, 9:00 am)30.27 "Hg (Jul 22, 9:00 am)
Low51 °F (Jul 17, 4:00 am)28% (Jul 17, 5:00 pm)29.95 "Hg (Jul 18, 7:00 pm)
Average66 °F64%30.09 "Hg
* Reported Jul 8 12:00 pm — Jul 23 12:00 pm, Maple Ridge. Weather by CustomWeather, © 2017

Note: Actual official high and low records may vary slightly from our data, if they occured in-between our weather recording intervals... More about our weather records

Advertising

Maple Ridge Weather History for the Previous 24 Hours

Scroll right to see more
 ConditionsComfort  
Time TempWeatherWind HumidityBarometerVisibility
12:00 pm
Sun, Jul 23
73 °FMild.5 mph61%30.07 "HgN/A
11:00 am69 °FMild.2 mph72%30.08 "HgN/A
10:00 am68 °FMild.2 mph78%30.08 "HgN/A
9:00 am69 °FMild.1 mph73%30.08 "HgN/A
8:00 am65 °FMild.1 mph81%30.07 "HgN/A
7:00 am63 °FMild.1 mph85%30.07 "HgN/A
6:00 am60 °FCool.No wind86%30.07 "HgN/A
5:00 am63 °FMild.1 mph88%30.07 "HgN/A
4:00 am60 °FCool.2 mph99%30.07 "HgN/A
3:00 am62 °FMild.1 mph90%30.08 "HgN/A
2:00 am62 °FMild.2 mph90%30.09 "HgN/A
1:00 am61 °FCool.No wind85%30.10 "HgN/A
12:00 am63 °FMild.1 mph87%30.10 "HgN/A
11:00 pm
Sat, Jul 22
65 °FMild.1 mph84%30.11 "HgN/A
10:00 pm64 °FMild.No wind84%30.11 "HgN/A
9:00 pm66 °FMild.3 mph80%30.11 "HgN/A
8:00 pm67 °FMild.5 mph78%30.12 "HgN/A
7:00 pm65 °FMild.7 mph80%30.13 "HgN/A
6:00 pm67 °FMild.8 mph75%30.14 "HgN/A
5:00 pm67 °FMild.6 mph74%30.16 "HgN/A
4:00 pm68 °FMild.3 mph75%30.18 "HgN/A
3:00 pm67 °FMild.5 mph77%30.19 "HgN/A
2:00 pm65 °FMild.8 mph79%30.21 "HgN/A
1:00 pm65 °FMild.7 mph81%30.22 "HgN/A
Weather by CustomWeather, © 2017

See weather overviewHow to use our weather pages